Regional Weather Roundup
Issued by NWS

Home | Current Version | Previous Version | Text Only | Print | Product List | Glossary On
Versions: 1 2 3 4 5 6 7 8 9 10 11 12 13 14 15 16 17 18 19 20 21 22 23 24 25 26 27 28 29 30 31 32 33 34 35 36 37 38 39 40 41 42 43 44 45 46 47 48 49 50
000
ASUS43 KIND 270409
RWRIN

WEATHER ROUNDUP FOR INDIANA
NATIONAL WEATHER SERVICE INDIANAPOLIS IN
1200 AM EDT FRI MAY 27 2016

NOTE: "FAIR" INDICATES FEW OR NO CLOUDS BELOW 12,000 FEET WITH NO
SIGNIFICANT WEATHER AND/OR OBSTRUCTIONS TO VISIBILITY.

* - STATION DOES NOT REPORT WEATHER SUCH AS PRECIPITATION OR FOG.

+ - STATION NOT QUALITY CONTROLLED BY THE NATIONAL WEATHER SERVICE.
    USE DATA WITH CAUTION...ESPECIALLY DEWPOINT AND RELATIVE
    HUMIDITY OBSERVATIONS.

INZ001>003-010>013-019-020-270500-
NORTHWEST INDIANA

CITY           SKY/WX    TMP DP  RH WIND       PRES   REMARKS
GARY /AIRPORT/ CLOUDY    76  73  88 S8        29.92S
KNOX *+        CLOUDY    70  57  64 S9        29.94S
LA PORTE +     PTCLDY    74  67  79 S8        29.95R
MICHIGAN CITY+ CLOUDY    72  64  78 S12       29.94R
MONTICELLO +   CLOUDY    69  62  77 S6        29.96S
RENSSELAER +   CLOUDY    70  64  83 S9        29.96R
VALPARAISO     CLOUDY    72  65  78 S10       29.94R

$$

LMZ046-743>745-270500-
SOUTHERN LAKE MICHIGAN

STATION/POSITION TIME  TEMP    WIND        PRES    WAVE
                       AIR SEA DIR/SP/G            HT
                 (UTC) (F)     (DEG/KT/KT) (MB)    (FT)
BURNS HARBOR     0300   76     180/ 12/ 17 1013.2S
MICHIGAN CITY    0300   76     140/  9/ 10   N/A
5NW MICH CITY    0400   68 61  200/  8/ 10   N/A     0

$$

INZ004-005-014>016-021>024-270500-
NORTH CENTRAL INDIANA

CITY           SKY/WX    TMP DP  RH WIND       PRES   REMARKS
GOSHEN         CLOUDY    69  59  70 S7        29.94F
LOGANSPORT +   CLOUDY    68  61  77 S6        29.98F
PERU/GRISSOM   CLOUDY    66  64  91 SW7       29.96F
ROCHESTER +    PTCLDY    72  64  78 SW9       29.97R
SOUTH BEND     PTCLDY    71  63  75 SW10      29.94F
WARSAW +       PTCLDY    70  63  78 S5        29.96S

$$

INZ006>009-017-018-025>027-270500-
NORTHEAST INDIANA

CITY           SKY/WX    TMP DP  RH WIND       PRES   REMARKS
ANGOLA *+        N/A     66  59  77 S5        29.95F
AUBURN +       CLEAR     72  61  68 SW6       29.97F
FORT WAYNE     MOCLDY    70  61  73 SW9       29.97F
HUNTINGTON +   CLEAR    N/A N/A N/A SW3       29.98S

$$

INZ028-029-035-036-043>045-051>053-270500-
WEST CENTRAL INDIANA

CITY           SKY/WX    TMP DP  RH WIND       PRES   REMARKS
CRAWFORDSVL +  CLOUDY    64  64 100 S5        29.98R
GREENCASTLE +  CLOUDY    64  64 100 S3        29.99S
LAFAYETTE      PTCLDY    67  62  84 SW3       29.97S
TERRE HAUTE    CLOUDY    66  62  87 S5        29.98S

$$

INZ030>032-037>040-046>048-054>057-064-065-270500-
CENTRAL INDIANA

CITY           SKY/WX    TMP DP  RH WIND       PRES   REMARKS
CP ATTERBURY + MOCLDY    64  61  88 CALM      29.99F
FISHERS *+     MOCLDY    66  64  94 CALM      29.99F
FRANKFORT +      N/A     66  62  85 CALM      30.00S
INDIANAPOLIS   CLOUDY    67  62  84 S8        29.97F
-EAGLE CREEK   MOCLDY    68  62  81 CALM      29.98F
KOKOMO *+      CLOUDY    70  61  73 SW8       29.97F
MARION +       CLOUDY    67  61  82 SW6       29.99S
SHELBYVILLE    PTCLDY    65  61  87 S5        29.99F
ZIONSVILLE +   CLOUDY    65  62  89 S7        29.99S

$$

INZ033-034-041-042-049-050-058-059-270500-
EAST CENTRAL INDIANA

CITY           SKY/WX    TMP DP  RH WIND       PRES   REMARKS
MUNCIE         CLOUDY    70  62  76 SW7       29.99F

$$

INZ060-061-067>069-081>083-085>088-270500-
SOUTHWEST INDIANA

CITY           SKY/WX    TMP DP  RH WIND       PRES   REMARKS
EVANSVILLE     PTCLDY    64  62  93 W3        29.97F
HUNTINGBURG *+ PTCLDY    66  63  88 SE3       29.99S
WASHINGTON +   CLOUDY    66  66 100 S3        29.98S

$$

INZ062-063-066-070>080-084-089>092-270500-
SOUTH CENTRAL AND SOUTHEAST INDIANA

CITY           SKY/WX    TMP DP  RH WIND       PRES   REMARKS
BEDFORD +      CLOUDY    66  66 100 CALM      29.99R
BLOOMINGTON    CLOUDY    67  61  81 SW6       30.00R
MADISON *+     MOCLDY    64  63  94 S3        30.03S
NORTH VERNON + PTCLDY   N/A N/A N/A CALM      30.01S
SEYMOUR +      CLOUDY    66  64  94 CALM      29.99F

$$





USA.gov is the U.S. government's official web portal to all federal, state and local government web resources and services.